Hourly Data Report for August 27, 2021

ALGONQUIN PARK EAST GATE
ONTARIO
Current Station Operator: ECCC - MSC

45°32'00.000" N
78°16'00.000" W
397.00 m
6080192
71581
TNK

Download Data

Hourly Data (August 2021)
Hourly Data Report for August 27, 2021
TIME
LST
Temp Definition
°C
Dew Point Definition
°C
Rel Hum Definition
%
Precip. Amount Definition
mm

Wind Dir Definition
10's deg

Wind Spd Definition
km/h
Visibility Definition
km
Stn Press Definition
kPa
Hmdx Definition


Wind Chill Definition


Weather Definition


00:00 14.4 12.0 85 0.0 8 1   97.52     LegendNANA
01:00 13.5 12.1 92 0.0 10 2   97.53     LegendNANA
02:00 14.1 11.9 87 0.0 6 2   97.59     LegendNANA
03:00 14.4 11.4 82 0.0 7 2   97.59     LegendNANA
04:00 14.0 11.1 83 0.0 8 3   97.61     LegendNANA
05:00 13.2 10.7 85 0.0 3 2   97.67     LegendNANA
06:00 13.0 10.3 84 0.0 5 3   97.70     LegendNANA
07:00 13.3 9.3 76 0.0 3 4   97.76     LegendNANA
08:00 14.0 8.6 70 0.0 7 5   97.79     LegendNANA
09:00 15.4 8.8 65 0.0 3 6   97.81     LegendNANA
10:00 16.9 7.2 53 0.0 3 7   97.83     LegendNANA
11:00 17.5 8.7 56 0.0 8 5   97.82     LegendNANA
12:00 17.9 8.0 52 0.0 4 4   97.83     LegendNANA
13:00 18.3 7.8 50 0.0 5 6   97.77     LegendNANA
14:00 20.3 8.8 48 0.0 5 4   97.72     LegendNANA
15:00 19.7 8.5 48 0.0 4 5   97.71     LegendNANA
16:00 18.6 8.6 52 0.0 10 4   97.73     LegendNANA
17:00 17.4 9.5 60 0.0 8 3   97.76     LegendNANA
18:00 16.6 10.5 67 0.0 8 2   97.73     LegendNANA
19:00 16.0 10.3 69 0.0 8 2   97.74     LegendNANA
20:00 15.3 10.3 72 0.0 0 1   97.77     LegendNANA
21:00 14.1 10.5 79 0.0 0 1   97.78     LegendNANA
22:00 14.6 11.2 80 0.0 0 1   97.81     LegendNANA
23:00 14.8 10.3 74 0.0 7 1   97.79     LegendNANA

Notes on Data Quality.

Legend

  • E = Estimated
  • M = Missing
  • NA = Not Available*
  • [empty] = Indicates an unobserved value
Date modified: